Regional Weather Roundup
Issued by NWS

Home | Current Version | Previous Version | Text Only | Print | Product List | Glossary Off
Versions: 1 2 3 4 5 6 7 8 9 10 11 12 13 14 15 16 17 18 19 20 21 22 23 24 25 26 27 28 29 30 31 32 33 34 35 36 37 38 39 40 41 42 43 44 45 46 47 48 49 50

000
ASUS43 KFSD 300410
RWRSD

WEATHER ROUNDUP FOR SOUTH DAKOTA
NATIONAL WEATHER SERVICE SIOUX FALLS SD
1100 PM CDT MON AUG 29 2016

NOTE: "FAIR" INDICATES FEW OR NO CLOUDS BELOW 12,000 FEET WITH NO
SIGNIFICANT WEATHER AND/OR OBSTRUCTIONS TO VISIBILITY.


SDZ001>005-009-010-012>017-300500-
NORTHWEST AND NORTH CENTRAL SOUTH DAKOTA

CITY           SKY/WX    TMP DP  RH WIND       PRES   REMARKS
BUFFALO          N/A     64  48  56 E13       30.20R
FAITH            N/A     65  52  62 NE9       30.24S
MOBRIDGE       CLOUDY    68  54  60 NE12      30.20S
$$

SDZ012>016-024>037-041>051-057-063-072>074-300500-
SOUTHWEST AND SOUTH CENTRAL SOUTH DAKOTA

CITY           SKY/WX    TMP DP  RH WIND       PRES   REMARKS
RAPID CTY ARPT CLOUDY    69  61  75 NE9       30.26R
PIERRE         PTCLDY    74  65  73 NE16G25   30.16R
CUSTER         CLOUDY    62  52  69 NE5       30.40R
ELLSWORTH AFB  CLOUDY    71  61  69 E2        30.25S
PHILIP         PTCLDY    73  66  78 NE8       30.18S
PINE RIDGE     PTCLDY    65  61  87 E5        30.25R
WINNER         FAIR      74  63  68 CALM      30.17R
$$

SDZ004>011-016>023-039-040-300500-
NORTHEAST SOUTH DAKOTA

CITY           SKY/WX    TMP DP  RH WIND       PRES   REMARKS
ABERDEEN       PTCLDY    67  61  81 NE3       30.20S
WATERTOWN      PTCLDY    69  64  84 NW5       30.20R
BROOKINGS      PTCLDY    73  69  87 S7        30.18R
SISSETON         N/A     67  64  90 N10       30.17S
$$

SDZ017-020-022-023-036>040-048>070-300500-
SOUTHEAST SOUTH DAKOTA

CITY           SKY/WX    TMP DP  RH WIND       PRES   REMARKS
SIOUX FALLS    CLOUDY    72  68  87 CALM      30.19F
HURON          PTCLDY    75  68  78 SE5       30.17R
CHAMBERLAIN    PTCLDY    75  68  77 E3        30.16R
MITCHELL       PTCLDY    73  68  84 S9        30.17R
YANKTON        CLOUDY    72  64  78 SE16      30.18S
$$

ABBREVIATIONS USED IN REMARKS
   TC - TEMPERATURE IN CELSIUS
  WCI - WIND CHILL INDEX
   HX - HEAT INDEX
  VSB - VISIBILITY




USA.gov is the U.S. government's official web portal to all federal, state and local government web resources and services.